,,,PA_Meas_PMT16A,,PR_Meas_QMR101_102,,RH_Meas_QMH101,,SR_Meas_QMS101,,TA_Meas_QMH101,,GenWind,,GenWind,
date,time,status,PA,status,PR,status,RH,status,SR,status,TA,status,DirAvg,status,SpdAvg,
2011-05-30, 00:00:04,VALID,1005.41,VALID,0,INVALID,143.583,VALID,0,VALID,26.2913,VALID,356,VALID,0.425781,
2011-05-30, 00:01:04,VALID,1005.38,VALID,0,INVALID,145.796,VALID,0,VALID,26.2719,VALID,9,VALID,0.538281,
2011-05-30, 00:02:04,VALID,1005.39,VALID,0,INVALID,147.81,VALID,0,VALID,26.2719,VALID,352,VALID,0.667969,
2011-05-30, 00:03:04,VALID,1005.4,VALID,0,INVALID,147.306,VALID,0,VALID,26.2739,VALID,355,VALID,0.601172,
2011-05-30, 00:04:04,VALID,1005.38,VALID,0,INVALID,152.066,VALID,0,VALID,26.2329,VALID,348,VALID,0.644141,
2011-05-30, 00:05:04,VALID,1005.37,VALID,0,INVALID,155.889,VALID,0,VALID,26.194,VALID,356,VALID,0.5875,
2011-05-30, 00:06:04,VALID,1005.35,VALID,0,INVALID,145.651,VALID,0,VALID,26.2154,VALID,6,VALID,1.07813,
2011-05-30, 00:07:04,VALID,1005.34,VALID,0,INVALID,143.682,VALID,0,VALID,26.2134,VALID,353,VALID,0.787891,
2011-05-30, 00:08:04,VALID,1005.31,VALID,0,INVALID,143.759,VALID,0,VALID,26.2544,VALID,352,VALID,0.589453,
2011-05-30, 00:09:04,VALID,1005.3,VALID,0,INVALID,142.21,VALID,0,VALID,26.2134,VALID,351,VALID,0.629297,
2011-05-30, 00:10:04,VALID,1005.26,VALID,0,INVALID,142.523,VALID,0,VALID,26.2134,VALID,355,VALID,0.714453,
2011-05-30, 00:11:04,VALID,1005.25,VALID,0,INVALID,139.853,VALID,0,VALID,26.2349,VALID,351,VALID,0.941797,
2011-05-30, 00:12:04,VALID,1005.23,VALID,0,INVALID,137.656,VALID,0,VALID,26.2134,VALID,1,VALID,0.930078,
2011-05-30, 00:13:04,VALID,1005.19,VALID,0,INVALID,134.642,VALID,0,VALID,26.2329,VALID,352,VALID,0.849219,
2011-05-30, 00:14:04,VALID,1005.2,VALID,0,INVALID,133.383,VALID,0,VALID,26.2739,VALID,343,VALID,0.638281,
2011-05-30, 00:15:04,VALID,1005.18,VALID,0,INVALID,132.033,VALID,0,VALID,26.2739,VALID,344,VALID,0.663281,
2011-05-30, 00:16:04,VALID,1005.2,VALID,0,INVALID,133.185,VALID,0,VALID,26.2329,VALID,350,VALID,0.920313,
2011-05-30, 00:17:04,VALID,1005.21,VALID,0,INVALID,134.276,VALID,0,VALID,26.2329,VALID,357,VALID,0.738281,
2011-05-30, 00:18:04,VALID,1005.23,VALID,0,INVALID,134.367,VALID,0,VALID,26.2544,VALID,350,VALID,0.788281,
2011-05-30, 00:19:04,VALID,1005.22,VALID,0,INVALID,132.392,VALID,0,VALID,26.2329,VALID,341,VALID,0.611328,
2011-05-30, 00:20:04,VALID,1005.2,VALID,0,INVALID,131.24,VALID,0,VALID,26.2524,VALID,357,VALID,1.17852,
2011-05-30, 00:21:04,VALID,1005.19,VALID,0,INVALID,131.453,VALID,0,VALID,26.2544,VALID,345,VALID,0.971094,
2011-05-30, 00:22:04,VALID,1005.16,VALID,0,INVALID,128.28,VALID,0,VALID,26.2329,VALID,360,VALID,0.797266,
2011-05-30, 00:23:04,VALID,1005.16,VALID,0,INVALID,126.25,VALID,0,VALID,26.2524,VALID,343,VALID,0.897266,
2011-05-30, 00:24:04,VALID,1005.18,VALID,0,INVALID,125.815,VALID,0,VALID,26.2309,VALID,356,VALID,0.959766,
2011-05-30, 00:25:04,VALID,1005.21,VALID,0,INVALID,122.787,VALID,0,VALID,26.2134,VALID,21,VALID,0.804688,
2011-05-30, 00:26:04,VALID,1005.2,VALID,0,INVALID,122.085,VALID,0,VALID,26.2349,VALID,1,VALID,0.851953,
2011-05-30, 00:27:04,VALID,1005.23,VALID,0,INVALID,123.092,VALID,0,VALID,26.2134,VALID,360,VALID,0.430078,
2011-05-30, 00:28:04,VALID,1005.2,VALID,0,INVALID,120.933,VALID,0,VALID,26.1745,VALID,356,VALID,0.907031,
2011-05-30, 00:29:04,VALID,1005.2,VALID,0,INVALID,119.812,VALID,0,VALID,26.1745,VALID,359,VALID,0.905859,
2011-05-30, 00:30:04,VALID,1005.2,VALID,0,INVALID,119.659,VALID,0,VALID,26.194,VALID,360,VALID,0.864062,
2011-05-30, 00:31:04,VALID,1005.19,VALID,0,INVALID,117.965,VALID,0,VALID,26.155,VALID,359,VALID,1.07461,
2011-05-30, 00:32:04,VALID,1005.16,VALID,0,INVALID,115.822,VALID,0,VALID,26.1959,VALID,355,VALID,0.745313,
2011-05-30, 00:33:04,VALID,1005.19,VALID,0,INVALID,113.327,VALID,0,VALID,26.1745,VALID,350,VALID,0.676953,
2011-05-30, 00:34:04,VALID,1005.19,VALID,0,INVALID,112.923,VALID,0.100563,VALID,26.1745,VALID,350,VALID,0.644922,
2011-05-30, 00:35:04,VALID,1005.19,VALID,0,INVALID,111.679,VALID,0,VALID,26.1745,VALID,359,VALID,1.19297,
2011-05-30, 00:36:04,VALID,1005.21,VALID,0,INVALID,109.169,VALID,0,VALID,26.2349,VALID,358,VALID,0.568359,
2011-05-30, 00:37:04,VALID,1005.22,VALID,0,VALID,104,VALID,0,VALID,26.2329,VALID,317,VALID,0.913672,
2011-05-30, 00:38:04,VALID,1005.23,VALID,0,VALID,104,VALID,0,VALID,26.2719,VALID,339,VALID,0.286719,
2011-05-30, 00:39:04,VALID,1005.23,VALID,0,VALID,104,VALID,0,VALID,26.2719,VALID,339,VALID,0.473047,
2011-05-30, 00:40:04,VALID,1005.21,VALID,0,VALID,104,VALID,0,VALID,26.3128,VALID,279,VALID,0.490234,
2011-05-30, 00:41:04,VALID,1005.24,VALID,0,VALID,104,VALID,0,VALID,26.3128,VALID,302,VALID,0.084375,
2011-05-30, 00:42:04,VALID,1005.22,VALID,0,VALID,104,VALID,0,VALID,26.2933,VALID,302,VALID,0.00117188,
2011-05-30, 00:43:04,VALID,1005.23,VALID,0,VALID,104,VALID,0,VALID,26.2719,VALID,346,VALID,0.532422,
2011-05-30, 00:44:04,VALID,1005.23,VALID,0,VALID,104,VALID,0.100563,VALID,26.2913,VALID,346,VALID,0.335156,
2011-05-30, 00:45:04,VALID,1005.24,VALID,0,VALID,104,VALID,0.100563,VALID,26.2913,VALID,346,VALID,0.119531,
2011-05-30, 00:46:04,VALID,1005.19,VALID,0,VALID,104,VALID,0.100563,VALID,26.2913,VALID,352,VALID,0.323438,
2011-05-30, 00:47:04,VALID,1005.19,VALID,0,VALID,104,VALID,0.100563,VALID,26.2309,VALID,352,VALID,0.383203,
2011-05-30, 00:48:04,VALID,1005.18,VALID,0,VALID,104,VALID,0.100563,VALID,26.2309,VALID,8,VALID,0.209766,
2011-05-30, 00:49:04,VALID,1005.15,VALID,0,VALID,104,VALID,0.100563,VALID,26.2114,VALID,8,VALID,0.135156,
2011-05-30, 00:50:04,VALID,1005.12,VALID,0,VALID,104,VALID,0.100563,VALID,26.194,VALID,8,VALID,0.369531,
2011-05-30, 00:51:04,VALID,1005.11,VALID,0,VALID,104,VALID,0.100563,VALID,26.153,VALID,8,VALID,0.345313,
2011-05-30, 00:52:04,VALID,1005.08,VALID,0,VALID,104,VALID,0.100563,VALID,26.0946,VALID,3,VALID,0.437891,
2011-05-30, 00:53:04,VALID,1005.03,VALID,0,VALID,104,VALID,0.100563,VALID,26.0771,VALID,352,VALID,0.725,
2011-05-30, 00:54:04,VALID,1005.02,VALID,0,VALID,104,VALID,0.100563,VALID,26.116,VALID,356,VALID,0.390234,
2011-05-30, 00:55:04,VALID,1004.99,VALID,0,VALID,104,VALID,0.100563,VALID,26.0362,VALID,356,VALID,0.530859,
2011-05-30, 00:56:04,VALID,1004.97,VALID,0,INVALID,110.275,VALID,0.100563,VALID,26.0381,VALID,345,VALID,0.504297,
2011-05-30, 00:57:04,VALID,1004.9,VALID,0,VALID,104,VALID,0,VALID,25.9992,VALID,357,VALID,0.870313,
2011-05-30, 00:58:04,VALID,1004.89,VALID,0,INVALID,110.993,VALID,0.100563,VALID,25.9972,VALID,349,VALID,0.413672,
2011-05-30, 00:59:04,VALID,1004.88,VALID,0,INVALID,111.717,VALID,0,VALID,25.9602,VALID,349,VALID,0.448828,
2011-05-30, 01:00:04,VALID,1004.85,VALID,0,INVALID,111.221,VALID,0,VALID,25.9622,VALID,349,VALID,0.509375,
2011-05-30, 01:01:04,VALID,1004.84,VALID,0,INVALID,113.724,VALID,0,VALID,25.9232,VALID,349,VALID,0.554297,
2011-05-30, 01:02:04,VALID,1004.84,VALID,0,INVALID,117.325,VALID,0,VALID,25.9038,VALID,350,VALID,0.444141,
2011-05-30, 01:03:04,VALID,1004.84,VALID,0,INVALID,118.324,VALID,0,VALID,25.8823,VALID,352,VALID,0.241406,
2011-05-30, 01:04:04,VALID,1004.84,VALID,0,INVALID,118.614,VALID,0,VALID,25.8434,VALID,351,VALID,0.546875,
2011-05-30, 01:05:04,VALID,1004.82,VALID,0,INVALID,120.803,VALID,0,VALID,25.8239,VALID,351,VALID,0.378906,
2011-05-30, 01:06:04,VALID,1004.84,VALID,0,INVALID,129.493,VALID,0,VALID,25.8044,VALID,351,VALID,0.428125,
2011-05-30, 01:07:04,VALID,1004.83,VALID,0,INVALID,134.444,VALID,0,VALID,25.8064,VALID,350,VALID,0.353125,
2011-05-30, 01:08:04,VALID,1004.84,VALID,0,INVALID,129.058,VALID,0,VALID,25.7674,VALID,349,VALID,0.461719,
2011-05-30, 01:09:04,VALID,1004.85,VALID,0,INVALID,123.855,VALID,0,VALID,25.7674,VALID,349,VALID,0.521875,
2011-05-30, 01:10:04,VALID,1004.84,VALID,0,INVALID,118.133,VALID,0,VALID,25.7655,VALID,349,VALID,0.380078,
2011-05-30, 01:11:04,VALID,1004.85,VALID,0,INVALID,114.799,VALID,0,VALID,25.7655,VALID,348,VALID,0.597656,
2011-05-30, 01:12:04,VALID,1004.83,VALID,0,INVALID,114.059,VALID,0,VALID,25.8064,VALID,344,VALID,0.309375,
2011-05-30, 01:13:04,VALID,1004.86,VALID,0,INVALID,111.862,VALID,0,VALID,25.8044,VALID,341,VALID,0.571094,
2011-05-30, 01:14:04,VALID,1004.84,VALID,0,INVALID,111.748,VALID,0.100563,VALID,25.8219,VALID,333,VALID,0.455078,
2011-05-30, 01:15:04,VALID,1004.86,VALID,0,INVALID,112.473,VALID,0.100563,VALID,25.8629,VALID,333,VALID,0.234766,
2011-05-30, 01:16:04,VALID,1004.83,VALID,0,INVALID,110.588,VALID,0.100563,VALID,25.8414,VALID,333,VALID,0.367188,
2011-05-30, 01:17:04,VALID,1004.81,VALID,0,INVALID,111.824,VALID,0.100563,VALID,25.8609,VALID,333,VALID,0.437109,
2011-05-30, 01:18:04,VALID,1004.81,VALID,0,INVALID,111.298,VALID,0.100563,VALID,25.8823,VALID,2,VALID,0.421094,
2011-05-30, 01:19:04,VALID,1004.77,VALID,0,INVALID,112.587,VALID,0.100563,VALID,25.8609,VALID,359,VALID,0.703906,
2011-05-30, 01:20:04,VALID,1004.81,VALID,0,INVALID,109.017,VALID,0.100563,VALID,25.8804,VALID,356,VALID,0.469141,
2011-05-30, 01:21:04,VALID,1004.77,VALID,0,INVALID,110.71,VALID,0.100563,VALID,25.9193,VALID,352,VALID,0.220703,
2011-05-30, 01:22:04,VALID,1004.75,VALID,0,INVALID,110.611,VALID,0.100563,VALID,25.9193,VALID,293,VALID,0.23125,
2011-05-30, 01:23:04,VALID,1004.77,VALID,0,INVALID,111.122,VALID,0.100563,VALID,25.9193,VALID,319,VALID,0.470313,
2011-05-30, 01:24:04,VALID,1004.76,VALID,0,VALID,104,VALID,0.100563,VALID,25.9193,VALID,352,VALID,0.794531,
2011-05-30, 01:25:04,VALID,1004.73,VALID,0,VALID,104,VALID,0.100563,VALID,25.9388,VALID,358,VALID,0.583594,
2011-05-30, 01:26:04,VALID,1004.73,VALID,0,VALID,104,VALID,0.100563,VALID,25.9972,VALID,353,VALID,0.320313,
2011-05-30, 01:27:04,VALID,1004.69,VALID,0,VALID,104,VALID,0.100563,VALID,25.9992,VALID,349,VALID,0.6875,
2011-05-30, 01:28:04,VALID,1004.73,VALID,0,VALID,104,VALID,0.100563,VALID,26.0167,VALID,354,VALID,0.762891,
2011-05-30, 01:29:04,VALID,1004.72,VALID,0,VALID,104,VALID,0,VALID,26.0381,VALID,336,VALID,0.724219,
2011-05-30, 01:30:04,VALID,1004.74,VALID,0,VALID,104,VALID,0,VALID,26.0596,VALID,346,VALID,0.741016,
2011-05-30, 01:31:04,VALID,1004.73,VALID,0,VALID,104,VALID,0,VALID,26.0576,VALID,351,VALID,0.709375,
2011-05-30, 01:32:04,VALID,1004.75,VALID,0,VALID,104,VALID,0,VALID,26.0596,VALID,349,VALID,0.574219,
2011-05-30, 01:33:04,VALID,1004.75,VALID,0,VALID,103.486,VALID,0,VALID,26.0596,VALID,348,VALID,0.841406,
2011-05-30, 01:34:04,VALID,1004.77,VALID,0,VALID,104,VALID,0,VALID,26.0596,VALID,350,VALID,0.348828,
2011-05-30, 01:35:04,VALID,1004.76,VALID,0,VALID,102.761,VALID,0,VALID,26.0596,VALID,337,VALID,0.782422,
2011-05-30, 01:36:04,VALID,1004.75,VALID,0,VALID,102.692,VALID,0,VALID,26.0576,VALID,348,VALID,0.382031,
2011-05-30, 01:37:04,VALID,1004.77,VALID,0,VALID,103.455,VALID,0,VALID,26.0596,VALID,348,VALID,0.260156,
2011-05-30, 01:38:04,VALID,1004.76,VALID,0,VALID,102.853,VALID,0,VALID,26.0596,VALID,349,VALID,0.315625,
2011-05-30, 01:39:04,VALID,1004.75,VALID,0,VALID,101.701,VALID,0,VALID,26.0596,VALID,349,VALID,0.527734,
2011-05-30, 01:40:04,VALID,1004.75,VALID,0,VALID,99.3204,VALID,0,VALID,26.081,VALID,349,VALID,0.924219,
2011-05-30, 01:41:04,VALID,1004.73,VALID,0,VALID,100.381,VALID,0,VALID,26.0966,VALID,347,VALID,0.288281,
2011-05-30, 01:42:04,VALID,1004.71,VALID,0,VALID,100.48,VALID,0,VALID,26.118,VALID,348,VALID,0.430859,
2011-05-30, 01:43:04,VALID,1004.71,VALID,0,VALID,99.3433,VALID,0,VALID,26.0966,VALID,344,VALID,0.669141,
2011-05-30, 01:44:04,VALID,1004.7,VALID,0,VALID,99.061,VALID,0,VALID,26.116,VALID,348,VALID,0.40625,
2011-05-30, 01:45:04,VALID,1004.67,VALID,0,VALID,98.8779,VALID,0,VALID,26.1355,VALID,345,VALID,0.752734,
2011-05-30, 01:46:04,VALID,1004.66,VALID,0,VALID,99.7705,VALID,0,VALID,26.1141,VALID,343,VALID,0.694531,
2011-05-30, 01:47:04,VALID,1004.67,VALID,0,VALID,100.663,VALID,0,VALID,26.116,VALID,339,VALID,0.477344,
2011-05-30, 01:48:04,VALID,1004.65,VALID,0,VALID,100.236,VALID,0,VALID,26.0771,VALID,340,VALID,0.553125,
2011-05-30, 01:49:04,VALID,1004.66,VALID,0,VALID,101.22,VALID,0,VALID,26.0381,VALID,349,VALID,0.325,
2011-05-30, 01:50:04,VALID,1004.61,VALID,0,VALID,101.769,VALID,0,VALID,25.9992,VALID,336,VALID,0.677734,
2011-05-30, 01:51:04,VALID,1004.6,VALID,0,VALID,101.563,VALID,0,VALID,25.9797,VALID,356,VALID,0.541016,
2011-05-30, 01:52:04,VALID,1004.6,VALID,0,VALID,99.3662,VALID,0.100563,VALID,25.9408,VALID,344,VALID,0.348828,
2011-05-30, 01:53:04,VALID,1004.59,VALID,0,VALID,100.144,VALID,0.100563,VALID,25.9193,VALID,344,VALID,0.2625,
2011-05-30, 01:54:04,VALID,1004.6,VALID,0,VALID,100.434,VALID,0,VALID,25.9193,VALID,342,VALID,0.261719,
2011-05-30, 01:55:04,VALID,1004.58,VALID,0,VALID,99.9154,VALID,0,VALID,25.9408,VALID,349,VALID,0.391016,
2011-05-30, 01:56:04,VALID,1004.57,VALID,0,VALID,98.4583,VALID,0,VALID,25.9408,VALID,9,VALID,0.394531,
2011-05-30, 01:57:04,VALID,1004.59,VALID,0,VALID,99.1983,VALID,0,VALID,25.9408,VALID,9,VALID,0.028125,
2011-05-30, 01:58:04,VALID,1004.61,VALID,0,VALID,98.7635,VALID,0.100563,VALID,25.9408,VALID,9,VALID,0.369531,
2011-05-30, 01:59:04,VALID,1004.61,VALID,0,VALID,98.0235,VALID,0,VALID,25.9427,VALID,2,VALID,0.342969,
2011-05-30, 02:00:05,VALID,1004.63,VALID,0,VALID,98.0693,VALID,0,VALID,25.9427,VALID,1,VALID,0.272656,
2011-05-30, 02:01:05,VALID,1004.62,VALID,0,VALID,96.5816,VALID,0,VALID,25.9213,VALID,328,VALID,0.364844,
2011-05-30, 02:02:05,VALID,1004.62,VALID,0,VALID,96.429,VALID,0,VALID,25.9622,VALID,359,VALID,0.190234,
2011-05-30, 02:03:05,VALID,1004.59,VALID,0,VALID,97.0241,VALID,0,VALID,25.9797,VALID,305,VALID,0.404297,
2011-05-30, 02:04:05,VALID,1004.62,VALID,0,VALID,95.8721,VALID,0,VALID,26.0012,VALID,298,VALID,0.185156,
2011-05-30, 02:05:05,VALID,1004.6,VALID,0,VALID,95.3915,VALID,0,VALID,25.9992,VALID,299,VALID,0.492188,
2011-05-30, 02:06:05,VALID,1004.62,VALID,0,VALID,94.6439,VALID,0,VALID,26.0206,VALID,355,VALID,0.702734,
2011-05-30, 02:07:05,VALID,1004.61,VALID,0,VALID,95.1627,VALID,0,VALID,26.0206,VALID,289,VALID,0.578906,
2011-05-30, 02:08:05,VALID,1004.63,VALID,0,VALID,95.033,VALID,0,VALID,26.0401,VALID,343,VALID,0.572266,
2011-05-30, 02:09:05,VALID,1004.65,VALID,0,VALID,94.7965,VALID,0,VALID,26.0401,VALID,352,VALID,0.577734,
2011-05-30, 02:10:05,VALID,1004.65,VALID,0,VALID,94.1099,VALID,0,VALID,26.0596,VALID,357,VALID,0.786719,
2011-05-30, 02:11:05,VALID,1004.66,VALID,0,VALID,93.3928,VALID,0,VALID,26.0596,VALID,349,VALID,0.754297,
2011-05-30, 02:12:05,VALID,1004.65,VALID,0,VALID,92.9274,VALID,0,VALID,26.0381,VALID,347,VALID,0.861719,
2011-05-30, 02:13:05,VALID,1004.65,VALID,0,VALID,93.3241,VALID,0,VALID,26.0791,VALID,346,VALID,0.228125,
2011-05-30, 02:14:05,VALID,1004.64,VALID,0,VALID,93.5835,VALID,0.100563,VALID,26.0771,VALID,349,VALID,0.682031,
2011-05-30, 02:15:05,VALID,1004.63,VALID,0,VALID,92.3705,VALID,0.100563,VALID,26.0751,VALID,348,VALID,0.716797,
2011-05-30, 02:16:05,VALID,1004.62,VALID,0,VALID,92.7824,VALID,0,VALID,26.0966,VALID,346,VALID,0.640625,
2011-05-30, 02:17:05,VALID,1004.6,VALID,0,VALID,92.7901,VALID,0.100563,VALID,26.118,VALID,358,VALID,0.669922,
2011-05-30, 02:18:05,VALID,1004.61,VALID,0,VALID,93.0647,VALID,0.100563,VALID,26.0985,VALID,337,VALID,0.332812,
2011-05-30, 02:19:05,VALID,1004.64,VALID,0,VALID,92.3705,VALID,0,VALID,26.0966,VALID,309,VALID,0.552344,
2011-05-30, 02:20:05,VALID,1004.7,VALID,0,VALID,91.1422,VALID,0.100563,VALID,26.116,VALID,279,VALID,1.11602,
2011-05-30, 02:21:05,VALID,1004.83,VALID,0,VALID,92.3552,VALID,0.100563,VALID,26.1745,VALID,275,VALID,0.399219,
2011-05-30, 02:22:05,VALID,1005.08,VALID,0,VALID,93.1715,VALID,0,VALID,26.1725,VALID,238,VALID,2.56953,
2011-05-30, 02:23:05,VALID,1005.12,VALID,0,VALID,98.9771,VALID,0,VALID,26.1745,VALID,239,VALID,1.58398,
2011-05-30, 02:24:05,VALID,1005.12,VALID,0,VALID,101.182,VALID,0.100563,VALID,26.0381,VALID,270,VALID,2.25195,
2011-05-30, 02:25:05,VALID,1004.97,VALID,0,VALID,103.15,VALID,0.100563,VALID,25.9213,VALID,284,VALID,2.19766,
2011-05-30, 02:26:05,VALID,1005.03,VALID,0,INVALID,109.642,VALID,0,VALID,25.7655,VALID,290,VALID,1.09727,
2011-05-30, 02:27:05,VALID,1005.06,VALID,0,INVALID,119.491,VALID,0.100563,VALID,25.6662,VALID,283,VALID,0.668359,
2011-05-30, 02:28:05,VALID,1004.96,VALID,0,INVALID,143.293,VALID,0.100563,VALID,25.5902,VALID,322,VALID,0.945313,
2011-05-30, 02:29:05,VALID,1004.98,VALID,0,INVALID,163.556,VALID,0,VALID,25.5123,VALID,290,VALID,2.45273,
2011-05-30, 02:30:05,VALID,1004.99,VALID,0,INVALID,163.586,VALID,0.100563,VALID,25.4539,VALID,263,VALID,2.0668,
2011-05-30, 02:31:05,VALID,1005.01,VALID,0,INVALID,163.609,VALID,0.100563,VALID,25.4149,VALID,307,VALID,0.776172,
2011-05-30, 02:32:05,VALID,1005.03,VALID,0,INVALID,163.609,VALID,0.100563,VALID,25.3741,VALID,299,VALID,0.876172,
2011-05-30, 02:33:05,VALID,1005.07,VALID,0,INVALID,163.617,VALID,0,VALID,25.3546,VALID,220,VALID,1.09453,
2011-05-30, 02:34:05,VALID,1005.12,VALID,0,INVALID,163.609,VALID,0,VALID,25.3565,VALID,315,VALID,2.02891,
2011-05-30, 02:35:05,VALID,1005.02,VALID,0,INVALID,163.632,VALID,0.100563,VALID,25.3565,VALID,264,VALID,1.50078,
2011-05-30, 02:36:05,VALID,1005.13,VALID,0,INVALID,163.617,VALID,0.100563,VALID,25.3351,VALID,283,VALID,2.24727,
2011-05-30, 02:37:05,VALID,1005.11,VALID,0,INVALID,163.617,VALID,0.100563,VALID,25.3351,VALID,292,VALID,1.48086,
2011-05-30, 02:38:05,VALID,1005.07,VALID,0,INVALID,163.632,VALID,0,VALID,25.3176,VALID,272,VALID,2.30117,
2011-05-30, 02:39:05,VALID,1005.06,VALID,0,INVALID,163.624,VALID,0.100563,VALID,25.2767,VALID,42,VALID,0.896875,
2011-05-30, 02:40:05,VALID,1005.09,VALID,0,INVALID,163.617,VALID,0.100563,VALID,25.2378,VALID,262,VALID,1.76367,
2011-05-30, 02:41:05,VALID,1004.99,VALID,0,INVALID,163.647,VALID,0,VALID,25.2397,VALID,293,VALID,1.07031,
2011-05-30, 02:42:05,VALID,1004.94,VALID,0,INVALID,163.655,VALID,0,VALID,25.1794,VALID,240,VALID,0.844141,
2011-05-30, 02:43:05,VALID,1004.93,VALID,0,INVALID,163.632,VALID,0.100563,VALID,25.1618,VALID,288,VALID,1.24375,
2011-05-30, 02:44:05,VALID,1004.85,VALID,0,INVALID,163.655,VALID,0,VALID,25.1442,VALID,303,VALID,2.21328,
2011-05-30, 02:45:05,VALID,1004.82,VALID,0,INVALID,163.632,VALID,0,VALID,25.0644,VALID,285,VALID,2.22773,
2011-05-30, 02:46:05,VALID,1004.8,VALID,0,INVALID,163.67,VALID,0,VALID,25.0255,VALID,296,VALID,1.91055,
2011-05-30, 02:47:05,VALID,1004.77,VALID,0,INVALID,163.655,VALID,0,VALID,25.0098,VALID,292,VALID,1.9418,
2011-05-30, 02:48:05,VALID,1004.76,VALID,0,INVALID,163.678,VALID,0,VALID,24.9282,VALID,275,VALID,1.16289,
2011-05-30, 02:49:05,VALID,1004.71,VALID,0,INVALID,163.639,VALID,0,VALID,24.9087,VALID,305,VALID,1.68711,
2011-05-30, 02:50:05,VALID,1004.72,VALID,0,INVALID,163.639,VALID,0,VALID,24.93,VALID,296,VALID,1.99375,
2011-05-30, 02:51:05,VALID,1004.64,VALID,0,INVALID,163.655,VALID,0,VALID,24.9282,VALID,276,VALID,1.6957,
2011-05-30, 02:52:05,VALID,1004.68,VALID,0,INVALID,163.624,VALID,0,VALID,24.9282,VALID,291,VALID,2.52891,
2011-05-30, 02:53:05,VALID,1004.6,VALID,0,INVALID,163.678,VALID,0,VALID,24.9282,VALID,292,VALID,1.59102,
2011-05-30, 02:54:05,VALID,1004.65,VALID,0,INVALID,163.647,VALID,0,VALID,24.9087,VALID,283,VALID,1.14766,
2011-05-30, 02:55:05,VALID,1004.64,VALID,0,INVALID,163.67,VALID,0,VALID,24.9087,VALID,268,VALID,1.51875,
2011-05-30, 02:56:05,VALID,1004.68,VALID,0,INVALID,163.647,VALID,0,VALID,24.9087,VALID,296,VALID,2.32266,
2011-05-30, 02:57:05,VALID,1004.73,VALID,0,INVALID,163.67,VALID,0,VALID,24.9495,VALID,295,VALID,1.73281,
2011-05-30, 02:58:05,VALID,1004.74,VALID,0,INVALID,163.655,VALID,0,VALID,24.9671,VALID,264,VALID,1.30352,
2011-05-30, 02:59:05,VALID,1004.81,VALID,0,INVALID,163.639,VALID,0,VALID,24.9671,VALID,270,VALID,1.09766,
2011-05-30, 03:00:05,VALID,1004.82,VALID,0,INVALID,163.624,VALID,0,VALID,25.0274,VALID,257,VALID,1.18047,
2011-05-30, 03:01:05,VALID,1004.85,VALID,0,INVALID,163.655,VALID,0,VALID,25.045,VALID,256,VALID,1.22422,
2011-05-30, 03:02:05,VALID,1004.83,VALID,0,INVALID,163.632,VALID,0,VALID,25.045,VALID,237,VALID,0.796875,
2011-05-30, 03:03:05,VALID,1004.82,VALID,0,INVALID,163.678,VALID,0,VALID,25.0858,VALID,286,VALID,1.44492,
2011-05-30, 03:04:05,VALID,1004.85,VALID,0,INVALID,163.639,VALID,0,VALID,25.1034,VALID,287,VALID,1.3125,
2011-05-30, 03:05:05,VALID,1004.84,VALID,0,INVALID,163.639,VALID,0,VALID,25.0839,VALID,280,VALID,1.24727,
2011-05-30, 03:06:05,VALID,1004.83,VALID,0,INVALID,163.639,VALID,0,VALID,25.1229,VALID,261,VALID,0.979688,
2011-05-30, 03:07:05,VALID,1004.81,VALID,0,INVALID,163.647,VALID,0,VALID,25.1423,VALID,225,VALID,1.17461,
2011-05-30, 03:08:05,VALID,1004.83,VALID,0,INVALID,163.624,VALID,0,VALID,25.1832,VALID,316,VALID,2.20781,
2011-05-30, 03:09:05,VALID,1004.87,VALID,0,INVALID,163.647,VALID,0,VALID,25.2027,VALID,261,VALID,1.37852,
2011-05-30, 03:10:05,VALID,1004.84,VALID,0,INVALID,163.639,VALID,0,VALID,25.2416,VALID,319,VALID,0.721875,
2011-05-30, 03:11:05,VALID,1004.87,VALID,0,INVALID,163.632,VALID,0,VALID,25.2611,VALID,236,VALID,1.24766,
2011-05-30, 03:12:05,VALID,1004.84,VALID,0,INVALID,163.647,VALID,0,VALID,25.2611,VALID,279,VALID,1.36992,
2011-05-30, 03:13:05,VALID,1004.87,VALID,0,INVALID,163.639,VALID,0,VALID,25.2981,VALID,229,VALID,0.697266,
2011-05-30, 03:14:05,VALID,1004.89,VALID,0,INVALID,163.647,VALID,0,VALID,25.3176,VALID,239,VALID,0.792188,
2011-05-30, 03:15:05,VALID,1004.91,VALID,0,INVALID,163.624,VALID,0,VALID,25.3176,VALID,301,VALID,0.721094,
2011-05-30, 03:16:05,VALID,1004.93,VALID,0,INVALID,163.601,VALID,0,VALID,25.3565,VALID,239,VALID,0.592578,
2011-05-30, 03:17:05,VALID,1004.9,VALID,0,INVALID,163.586,VALID,0,VALID,25.3565,VALID,259,VALID,1.40195,
2011-05-30, 03:18:05,VALID,1004.87,VALID,0,INVALID,163.609,VALID,0,VALID,25.3974,VALID,291,VALID,1.6168,
2011-05-30, 03:19:05,VALID,1004.92,VALID,0,INVALID,163.617,VALID,0,VALID,25.376,VALID,252,VALID,1.4293,
2011-05-30, 03:20:05,VALID,1004.88,VALID,0,INVALID,163.632,VALID,0,VALID,25.4149,VALID,156,VALID,0.807422,
2011-05-30, 03:21:05,VALID,1004.89,VALID,0,INVALID,163.586,VALID,0,VALID,25.4344,VALID,253,VALID,0.864453,
2011-05-30, 03:22:05,VALID,1004.88,VALID,0,INVALID,163.632,VALID,0,VALID,25.4558,VALID,170,VALID,0.840234,
2011-05-30, 03:23:05,VALID,1004.9,VALID,0,INVALID,163.632,VALID,0,VALID,25.4539,VALID,254,VALID,1.0043,
2011-05-30, 03:24:05,VALID,1004.86,VALID,0,INVALID,163.586,VALID,0,VALID,25.4539,VALID,252,VALID,2.61992,
2011-05-30, 03:25:05,VALID,1004.88,VALID,0,INVALID,149.038,VALID,0,VALID,25.5123,VALID,222,VALID,1.56641,
2011-05-30, 03:26:05,VALID,1004.93,VALID,0,INVALID,127.852,VALID,0,VALID,25.5513,VALID,214,VALID,1.88633,
2011-05-30, 03:27:05,VALID,1004.87,VALID,0,INVALID,112.267,VALID,0,VALID,25.5921,VALID,242,VALID,1.71367,
2011-05-30, 03:28:05,VALID,1004.93,VALID,0,INVALID,117.294,VALID,0,VALID,25.5707,VALID,245,VALID,1.11953,
2011-05-30, 03:29:05,VALID,1004.89,VALID,0,INVALID,118.568,VALID,0,VALID,25.6097,VALID,234,VALID,1.65117,
2011-05-30, 03:30:05,VALID,1004.9,VALID,0,INVALID,120.521,VALID,0,VALID,25.6097,VALID,289,VALID,0.548047,
2011-05-30, 03:31:05,VALID,1004.9,VALID,0,INVALID,115.829,VALID,0,VALID,25.6311,VALID,256,VALID,1.37773,
2011-05-30, 03:32:05,VALID,1004.92,VALID,0,INVALID,117.164,VALID,0,VALID,25.6292,VALID,234,VALID,1.85625,
2011-05-30, 03:33:05,VALID,1004.92,VALID,0,INVALID,123.176,VALID,0,VALID,25.6292,VALID,237,VALID,1.21406,
2011-05-30, 03:34:05,VALID,1004.85,VALID,0,INVALID,128.577,VALID,0,VALID,25.6292,VALID,268,VALID,1.41953,
2011-05-30, 03:35:05,VALID,1004.88,VALID,0,INVALID,134.421,VALID,0,VALID,25.67,VALID,191,VALID,0.771094,
2011-05-30, 03:36:05,VALID,1004.83,VALID,0,INVALID,134.772,VALID,0,VALID,25.6486,VALID,249,VALID,1.05859,
2011-05-30, 03:37:05,VALID,1004.8,VALID,0,INVALID,118.805,VALID,0.100563,VALID,25.6506,VALID,220,VALID,1.92383,
2011-05-30, 03:38:05,VALID,1004.78,VALID,0,INVALID,113.396,VALID,0,VALID,25.6486,VALID,225,VALID,1.51602,
2011-05-30, 03:39:05,VALID,1004.82,VALID,0,INVALID,112.785,VALID,0,VALID,25.67,VALID,245,VALID,1.29453,
2011-05-30, 03:40:05,VALID,1004.77,VALID,0,INVALID,112.61,VALID,0,VALID,25.6467,VALID,232,VALID,1.35547,